809  
ASUS46 KOTX 242025  
RWROTX  
 
EASTERN WASHINGTON/NORTHERN IDAHO ROUNDUP  
NATIONAL WEATHER SERVICE, SPOKANE WA  
1200 PM PST WED FEB 24 2021  
 
NOTE: "FAIR" INDICATED FEW OR NO CLOUDS BELOW 12,000 FEET WITH NO  
SIGNIFICANT WEATHER AND/OR S TO VISIBILITY
.  
   
..NORTHEAST WASHINGTON AND NORTHERN IDAHO PANHANDLE
 
 
 
CITY SKY/WX TMP DP RH WIND PRES REMARKS
 
SPOKANE INTL MOSUNNY 32 26 78 S6 30.47S WCI 26  
SPOKANE DOWNTO PTSUNNY 36 28 73 SW8 30.49R  
COEUR D ALENE PTSUNNY 35 27 72 W6 30.46R  
DEER PARK SUNNY 38 23 55 S5 30.46R  
SANDPOINT MOSUNNY 37 27 65 S9 30.44F  
BONNERS FERRY FAIR 36 21 55 SW3 30.41F  
   
..SOUTHEAST WASHINGTON AND SOUTHERN IDAHO PANHANDLE
 
 
 
CITY SKY/WX TMP DP RH WIND PRES REMARKS
 
WALLA WALLA MOSUNNY 41 28 60 SW12G21 30.54R  
PULLMAN/MOSCOW CLOUDY 32 27 81 NW5 30.49R WCI 27  
LEWISTON MOSUNNY 39 28 64 SE3 30.52R  
LOWELL N/A 37 31 78 VRB6 30.51R  
GRANGEVILLE CLOUDY 32 27 80 CALM 30.44S  
   
..COLUMBIA BASIN
 
 
 
CITY SKY/WX TMP DP RH WIND PRES REMARKS
 
EPHRATA SUNNY 44 18 35 NW10 30.51S  
MOSES LAKE SUNNY 48 20 32 N7 30.52S  
PASCO SUNNY 48 24 39 N7 30.58R  
RICHLAND CLEAR 49 22 35 N6 30.57F  
HERMISTON SUNNY 46 24 42 W7 30.58R  
PENDLETON SUNNY 41 25 53 W7 30.54R  
   
..EAST SLOPES CASCADES
 
 
 
CITY SKY/WX TMP DP RH WIND PRES REMARKS
 
THE DALLES SUNNY 47 29 49 NE3 30.59S  
YAKIMA SUNNY 45 16 31 CALM 30.54F  
ELLENSBURG SUNNY 41 23 48 VRB5 30.51S  
STAMPEDE PASS SUNNY 32 22 66 CALM 30.43S  
WENATCHEE SUNNY 38 22 52 VRB5 30.53S  
WINTHROP MOCLDY 35 17 49 CALM 30.50F  
OMAK SUNNY 44 17 33 VRB6 30.50F  
SUNNYSIDE CLEAR 46 21 36 SW5 30.55F  
   
..SOUTHERN BRITISH COLUMBIA
 
 
 
CITY SKY/WX TMP DP RH WIND PRES REMARKS
 
PENTICTON MOSUNNY 43 16 33 SW3 30.48F  
CASTLEGAR MOSUNNY 36 21 55 S2 30.45F  
CRANBROOK MOSUNNY 32 14 47 SE5 30.33 WCI 27  
OSOYOOS N/A 43 19 39 S2 N/A  
CRESTON N/A 37 21 52 SW2 N/A  
   
..WESTERN MONTANA
 
 
 
CITY SKY/WX TMP DP RH WIND PRES REMARKS
 
KALISPELL PTCLDY 31 20 63 S8 30.36F WCI 23  
LIBBY N/A 34 23 64 CALM 30.39F  
MISSOULA MOSUNNY 33 24 69 CALM 30.37S  
   
..NEIGHBORING CITIES
 
 
 
CITY SKY/WX TMP DP RH WIND PRES REMARKS
 
SEATTLE PTSUNNY 41 35 79 W5 30.59F  
PORTLAND MOSUNNY 45 33 63 CALM 30.61F  
BOISE PTSUNNY 40 25 55 N17G23 30.36S  
GREAT FALLS CLOUDY 30 24 78 SW12 30.30F WCI 20  
CALGARY MOSUNNY 32 5 32 SW5 30.13 WCI 27  
 
CLICK HERE TO GO TO PREVIOUS BULLETINS.

The Nexlab WA Page
The Nexlab ID Page Main Text Page